EW8655 Weather Reports


Display with metric or nautical units.
time (UTC)temp
F
wind
direction
speed
MPH
gust
MPH
rain 1hr
in
rain 24hr
in
rain mn
in
humidity
%
barometer
mb
20260505125006 68 219 13.0 18.0 0.00 0.00 0.00 68 999.1
20260505124505 68 216 12.0 18.0 0.00 0.00 0.00 68 999.1
20260505124006 68 203 14.0 18.0 0.00 0.00 0.00 68 999.6
20260505123006 68 215 12.0 18.0 0.00 0.00 0.00 69 999.1
20260505122505 67 224 12.0 14.0 0.00 0.00 0.00 69 999.1
20260505122006 67 220 9.0 14.0 0.00 0.00 0.00 69 999.1
20260505121505 67 209 10.0 14.0 0.00 0.00 0.00 69 999.1
20260505121006 67 198 9.0 14.0 0.00 0.00 0.00 70 999.1
20260505120005 66 200 10.0 14.0 0.00 0.00 0.00 70 999.1
20260505115506 66 205 12.0 16.0 0.00 0.00 0.00 70 999.1
20260505115006 66 211 12.0 16.0 0.00 0.00 0.00 70 999.1
20260505114506 66 210 12.0 18.0 0.00 0.00 0.00 71 999.1
20260505114006 66 199 12.0 18.0 0.00 0.00 0.00 71 999.1
20260505113506 66 208 12.0 18.0 0.00 0.00 0.00 71 999.1
20260505113006 66 211 14.0 18.0 0.00 0.00 0.00 71 999.1
20260505112505 66 211 12.0 16.0 0.00 0.00 0.00 72 999.1
20260505112006 65 211 13.0 16.0 0.00 0.00 0.00 72 999.1
20260505111506 65 211 12.0 16.0 0.00 0.00 0.00 72 999.1
20260505111006 65 212 12.0 16.0 0.00 0.00 0.00 73 999.1
20260505110506 64 195 12.0 16.0 0.00 0.00 0.00 74 999.1
20260505102006 62 208 9.0 14.0 0.00 0.00 0.00 77 998.2
20260505101505 62 199 9.0 14.0 0.00 0.00 0.00 77 999.1
20260505101006 62 193 10.0 16.0 0.00 0.00 0.00 77 998.1
20260505100506 62 191 12.0 16.0 0.00 0.00 0.00 77 999.1
20260505100006 62 189 12.0 16.0 0.00 0.00 0.00 77 998.1
20260505095506 62 193 12.0 16.0 0.00 0.00 0.00 77 998.1
20260505095008 62 191 12.0 18.0 0.00 0.00 0.00 77 998.1
20260505094507 62 196 13.0 18.0 0.00 0.00 0.00 77 998.6
20260505094008 62 183 14.0 18.0 0.00 0.00 0.00 77 998.1
20260505093507 62 191 14.0 18.0 0.00 0.00 0.00 77 998.1
20260505093007 62 191 12.0 20.0 0.00 0.00 0.00 77 998.1
20260505092507 62 192 14.0 20.0 0.00 0.00 0.00 77 998.1
20260505092007 62 183 14.0 18.0 0.00 0.00 0.00 77 998.1
20260505091507 62 194 14.0 18.0 0.00 0.00 0.00 78 998.9
20260505091007 62 187 14.0 18.0 0.00 0.00 0.00 78 999.1
20260505090508 62 195 14.0 16.0 0.00 0.00 0.00 79 998.6
20260505090007 62 187 12.0 16.0 0.00 0.00 0.00 80 999.1
20260505085507 61 196 12.0 16.0 0.00 0.00 0.00 81 999.1
20260505085007 61 181 9.0 12.0 0.00 0.00 0.00 81 999.1
20260505084507 61 187 9.0 12.0 0.00 0.00 0.00 81 999.1
20260505084007 61 190 9.0 14.0 0.00 0.00 0.00 82 999.1
20260505083007 60 179 9.0 14.0 0.00 0.00 0.00 83 999.1
20260505082507 60 174 9.0 14.0 0.00 0.00 0.00 83 999.1
20260505082008 60 183 10.0 14.0 0.00 0.00 0.00 83 999.1
20260505081507 60 195 12.0 14.0 0.00 0.00 0.00 83 999.1
20260505081007 60 181 12.0 14.0 0.00 0.00 0.00 83 999.1
20260505080507 60 182 12.0 14.0 0.00 0.00 0.00 83 999.1
20260505080006 60 203 10.0 14.0 0.00 0.00 0.00 83 999.1
20260505075508 60 199 12.0 16.0 0.00 0.00 0.00 83 999.1
20260505074507 61 225 16.0 26.0 0.00 0.00 0.00 80 999.1
20260505074008 61 224 20.0 29.0 0.00 0.00 0.00 79 999.1
20260505073008 61 233 21.0 26.0 0.00 0.00 0.00 76 1000.1
20260505072508 62 238 24.0 26.0 0.00 0.00 0.00 74 999.1
20260505072007 62 236 19.0 24.0 0.00 0.00 0.00 72 999.6
20260505071507 63 220 14.0 20.0 0.00 0.00 0.00 71 999.9
20260505070507 63 219 16.0 18.0 0.00 0.00 0.00 69 1000.1
20260505070011 64 230 16.0 18.0 0.00 0.00 0.00 68 1000.1
20260505064507 65 216 14.0 16.0 0.00 0.00 0.00 67 1000.1
20260505064008 64 233 10.0 16.0 0.00 0.00 0.00 68 1000.1
20260505063007 64 210 9.0 12.0 0.00 0.00 0.00 68 1000.1
20260505062507 64 212 9.0 12.0 0.00 0.00 0.00 67 1000.1
20260505062008 64 208 9.0 14.0 0.00 0.00 0.00 67 1000.1
20260505061507 64 206 12.0 14.0 0.00 0.00 0.00 67 1000.1
20260505061008 64 200 12.0 16.0 0.00 0.00 0.00 66 1000.1
20260505060508 64 206 12.0 16.0 0.00 0.00 0.00 66 1000.1
20260505060007 64 205 12.0 16.0 0.00 0.00 0.00 65 1000.1
20260505055507 64 198 12.0 16.0 0.00 0.00 0.00 65 1000.1
20260505055008 64 194 12.0 14.0 0.00 0.00 0.00 64 1000.1
20260505054507 64 192 12.0 14.0 0.00 0.00 0.00 63 1000.1
20260505054007 64 198 12.0 14.0 0.00 0.00 0.00 63 1000.1
20260505053008 65 195 9.0 14.0 0.00 0.00 0.00 61 1000.1
20260505052507 65 201 12.0 14.0 0.00 0.00 0.00 61 1000.1
20260505052008 65 188 12.0 14.0 0.00 0.00 0.00 61 1000.1
20260505051506 65 194 12.0 16.0 0.00 0.00 0.00 60 1000.1
20260505051007 65 210 12.0 16.0 0.00 0.00 0.00 60 1000.1
20260505050508 65 206 12.0 16.0 0.00 0.00 0.00 60 1000.1
20260505041506 65 195 10.0 14.0 0.00 0.00 0.00 55 1000.1
20260505041008 65 189 9.0 12.0 0.00 0.00 0.00 54 1000.1
20260505040507 65 200 9.0 14.0 0.00 0.00 0.00 54 1000.1
20260505040007 65 206 9.0 14.0 0.00 0.00 0.00 54 1000.1
20260505035506 65 206 9.0 12.0 0.00 0.00 0.00 53 1000.1
20260505035008 65 223 9.0 16.0 0.00 0.00 0.00 53 1000.1
20260505034506 65 213 12.0 16.0 0.00 0.00 0.00 52 1000.1
20260505034008 66 224 14.0 16.0 0.00 0.00 0.00 51 1000.1
20260505033507 66 218 14.0 20.0 0.00 0.00 0.00 51 1000.1
20260505033007 66 219 16.0 20.0 0.00 0.00 0.00 50 1000.1
20260505032506 66 224 13.0 20.0 0.00 0.00 0.00 50 1000.1
20260505032008 67 208 14.0 18.0 0.00 0.00 0.00 50 1000.1
20260505031506 64 235 6.0 9.0 0.00 0.00 0.00 51 1000.1
20260505031008 64 208 5.0 7.0 0.00 0.00 0.00 51 1000.1
20260505030507 64 197 5.0 9.0 0.00 0.00 0.00 50 1000.1
20260505030007 65 195 5.0 9.0 0.00 0.00 0.00 50 1000.1
20260505025007 65 201 5.0 7.0 0.00 0.00 0.00 49 1000.1
20260505024507 65 196 5.0 7.0 0.00 0.00 0.00 49 1000.1
20260505024008 65 205 5.0 7.0 0.00 0.00 0.00 49 1000.1
20260505023508 65 196 5.0 7.0 0.00 0.00 0.00 49 1000.1
20260505022506 65 186 6.0 7.0 0.00 0.00 0.00 48 1000.1
20260505022007 65 193 7.0 7.0 0.00 0.00 0.00 48 1000.1
20260505021507 65 180 7.0 7.0 0.00 0.00 0.00 48 1000.1
20260505021008 66 183 7.0 7.0 0.00 0.00 0.00 47 1000.1
20260505020507 66 191 7.0 7.0 0.00 0.00 0.00 47 1000.1
20260505020006 66 198 7.0 9.0 0.00 0.00 0.00 47 1000.1
20260505015008 67 187 7.0 7.0 0.00 0.00 0.00 46 1000.1
20260505014506 67 195 7.0 9.0 0.00 0.00 0.00 46 1000.1
20260505014007 67 211 7.0 9.0 0.00 0.00 0.00 46 1000.1
20260505013507 67 228 7.0 9.0 0.00 0.00 0.00 46 1000.1
20260505013008 67 238 7.0 9.0 0.00 0.00 0.00 46 1000.1
20260505012007 68 229 7.0 9.0 0.00 0.00 0.00 45 1000.1
20260505011506 68 230 9.0 9.0 0.00 0.00 0.00 45 1000.1
20260505011007 68 225 9.0 9.0 0.00 0.00 0.00 44 1000.1
20260505010507 68 231 7.0 9.0 0.00 0.00 0.00 44 1000.1
20260505010006 68 222 7.0 9.0 0.00 0.00 0.00 44 1000.1
20260505005507 69 234 7.0 9.0 0.00 0.00 0.00 44 1000.1
20260505004507 69 231 9.0 12.0 0.00 0.00 0.00 44 1000.1
20260505003507 69 228 9.0 14.0 0.00 0.00 0.00 43 1000.1
20260505003008 70 237 9.0 12.0 0.00 0.00 0.00 43 1000.1
20260505002507 70 226 9.0 12.0 0.00 0.00 0.00 42 1000.1
20260505002008 70 235 9.0 12.0 0.00 0.00 0.00 42 1000.1
20260505001506 70 231 9.0 9.0 0.00 0.00 0.00 42 1000.1
20260505001008 71 225 7.0 9.0 0.00 0.00 0.00 42 1000.1
20260505000507 71 227 7.0 9.0 0.00 0.00 0.00 42 1000.1
20260505000006 70 231 7.0 9.0 0.00 0.00 0.00 42 1000.1
20260504235507 71 243 7.0 9.0 0.00 0.00 0.00 42 1000.1
20260504235007 71 248 7.0 9.0 0.00 0.00 0.00 42 1000.1
20260504234507 71 236 7.0 9.0 0.00 0.00 0.00 42 1000.1
20260504234008 71 243 7.0 9.0 0.00 0.00 0.00 42 1000.1
20260504233507 71 249 9.0 14.0 0.00 0.00 0.00 42 1000.1
20260504233007 71 254 9.0 14.0 0.00 0.00 0.00 42 1000.1
20260504232506 72 259 12.0 14.0 0.00 0.00 0.00 41 999.7
20260504232007 72 261 12.0 16.0 0.00 0.00 0.00 41 1000.1
20260504231506 72 261 13.0 18.0 0.00 0.00 0.00 41 999.7
20260504231007 73 266 14.0 18.0 0.00 0.00 0.00 41 999.1
20260504230507 73 252 13.0 16.0 0.00 0.00 0.00 41 999.1
20260504225508 73 255 13.0 16.0 0.00 0.00 0.00 41 999.1
20260504225007 73 254 12.0 16.0 0.00 0.00 0.00 41 999.1
20260504224506 73 260 12.0 16.0 0.00 0.00 0.00 40 999.1
20260504224008 73 256 13.0 18.0 0.00 0.00 0.00 40 999.1
20260504223507 73 240 14.0 20.0 0.00 0.00 0.00 40 999.1
20260504223007 73 257 14.0 20.0 0.00 0.00 0.00 40 999.1
20260504222506 73 248 15.0 18.0 0.00 0.00 0.00 41 999.1
20260504222007 73 263 16.0 18.0 0.00 0.00 0.00 40 999.1
20260504221007 73 255 14.0 22.0 0.00 0.00 0.00 41 999.1
20260504220507 73 257 17.0 22.0 0.00 0.00 0.00 40 999.1
20260504220006 74 258 16.0 20.0 0.00 0.00 0.00 40 999.1
20260504215507 74 254 17.0 20.0 0.00 0.00 0.00 40 999.1
20260504215007 74 253 16.0 20.0 0.00 0.00 0.00 41 998.6
20260504214007 73 243 18.0 31.0 0.00 0.00 0.00 41 999.1
20260504213008 74 242 17.0 24.0 0.00 0.00 0.00 41 999.1
20260504212506 74 261 18.0 24.0 0.00 0.00 0.00 41 999.1
20260504212007 74 239 18.0 26.0 0.00 0.00 0.00 41 999.1
20260504211506 74 256 21.0 26.0 0.00 0.00 0.00 41 999.1
20260504211007 74 265 18.0 26.0 0.00 0.00 0.00 42 999.1
20260504210506 74 241 20.0 26.0 0.00 0.00 0.00 41 999.1
20260504210006 74 242 19.0 24.0 0.00 0.00 0.00 42 999.1
20260504205007 74 243 22.0 26.0 0.00 0.00 0.00 42 999.1
20260504204007 73 249 22.0 31.0 0.00 0.00 0.00 42 999.3
20260504203507 73 240 22.0 31.0 0.00 0.00 0.00 43 1000.1
20260504202506 73 235 22.0 31.0 0.00 0.00 0.00 43 999.1
20260504202007 73 243 22.0 26.0 0.00 0.00 0.00 43 1000.1
20260504201506 73 241 22.0 31.0 0.00 0.00 0.00 44 1000.1
20260504201007 73 253 22.0 31.0 0.00 0.00 0.00 44 999.9
20260504200506 73 248 18.0 31.0 0.00 0.00 0.00 44 1000.1
20260504200006 73 253 16.0 24.0 0.00 0.00 0.00 44 1000.1
20260504195505 73 248 19.0 29.0 0.00 0.00 0.00 44 1000.1
20260504195007 73 232 19.0 29.0 0.00 0.00 0.00 44 1000.1
20260504194506 72 230 16.0 22.0 0.00 0.00 0.00 45 1000.1
20260504194007 72 245 14.0 22.0 0.00 0.00 0.00 45 1000.1
20260504193506 72 252 16.0 22.0 0.00 0.00 0.00 45 1000.1
20260504193007 72 236 18.0 26.0 0.00 0.00 0.00 45 1000.6
20260504192506 71 235 21.0 26.0 0.00 0.00 0.00 45 1000.9
20260504192007 71 239 22.0 26.0 0.00 0.00 0.00 45 1000.8
20260504191505 71 236 20.0 26.0 0.00 0.00 0.00 46 1000.6
20260504191007 71 236 22.0 26.0 0.00 0.00 0.00 46 1001.1
20260504190507 71 252 20.0 26.0 0.00 0.00 0.00 47 1000.3
20260504190006 71 244 22.0 31.0 0.00 0.00 0.00 47 1001.1
20260504184007 70 254 20.0 24.0 0.00 0.00 0.00 49 1001.1
20260504183506 70 252 20.0 26.0 0.00 0.00 0.00 49 1001.1
20260504183007 70 237 22.0 26.0 0.00 0.00 0.00 49 1001.1
20260504182505 69 234 22.0 26.0 0.00 0.00 0.00 49 1001.1
20260504182007 69 262 20.0 26.0 0.00 0.00 0.00 49 1001.1
20260504181506 70 242 20.0 29.0 0.00 0.00 0.00 50 1001.1
20260504181007 69 240 22.0 29.0 0.00 0.00 0.00 49 1001.1
20260504180506 69 258 18.0 26.0 0.00 0.00 0.00 50 1001.1
20260504180006 69 242 22.0 29.0 0.00 0.00 0.00 50 1001.5
20260504175506 69 231 22.0 29.0 0.00 0.00 0.00 50 1001.1
20260504175007 69 242 22.0 26.0 0.00 0.00 0.00 51 1001.2
20260504174507 69 260 19.0 24.0 0.00 0.00 0.00 51 1001.7
20260504174007 68 252 18.0 22.0 0.00 0.00 0.00 51 1002.1
20260504173506 69 245 18.0 22.0 0.00 0.00 0.00 51 1002.1
20260504173007 68 243 18.0 24.0 0.00 0.00 0.00 51 1002.1
20260504172506 68 225 20.0 26.0 0.00 0.00 0.00 51 1002.1
20260504172007 68 253 20.0 26.0 0.00 0.00 0.00 51 1002.1
20260504171506 68 234 20.0 26.0 0.00 0.00 0.00 51 1002.1
20260504171007 67 241 19.0 26.0 0.00 0.00 0.00 51 1002.1
20260504170506 68 221 16.0 26.0 0.00 0.00 0.00 52 1002.1
20260504151006 63 231 18.0 24.0 0.00 0.00 0.00 54 1003.1
20260504150506 63 235 18.0 24.0 0.00 0.00 0.00 54 1003.1
20260504141006 61 245 21.0 29.0 0.00 0.00 0.00 55 1003.1
20260504140505 61 247 20.0 26.0 0.00 0.00 0.00 55 1003.1